DELTA 1 DEB, 7152

Orbit data source: Space-Track

DELTA 1 DEB, 7152 is space debris in SSO originally from a launch on Tue, 06 Nov 1973 UTC launched from the Air Force Western Test Range (AFWTR). Debris objects in space refer to the collection of defunct objects orbiting the Earth. Examples of debris include non-operational satellites, rocket bodies, and fragments generated from explosions, collisions, or faulty payload assembly.

Loading next visibility...
Identifier
7152, 1973-086DS
Orbit
SSO
Country
Flag of USUS
Related business
Manufacturer
Unknown
Mission
Spacecraft
Bus & Motor
Unknown
Mass
Unknown
Launch date (UTC)
1973-11-06 (52 years ago)
Launch vehicle
Unknown
Launch site
Air Force Western Test Range (AFWTR)
Object type
Payload
Rocket body
Debris
Shape & HBR
Unknown shape, 0.2 m
Radar Cross Section
Small (<0.1 m²)

Expand to show TLE details & history
Last TLE update: 1 day ago

TLE from 1 day ago
0 DELTA 1 DEB
1 07152U 73086DS  26123.68392868 -.00000023  00000-0  18610-3 0  9998
2 07152 102.2948  83.9160 0080824 145.7824  29.3178 12.28552424353223
Epoch: 2026-05-03T16:24Z
TLE epoch observation values (Epoch: 2026-05-03T16:24:51.437Z)
Latitude
4.26054°
Longitude
157.04347°
Altitude
1,501.785 km
Speed
7.139 km/s
True Right ascension
17h 39m 22s
True Declination
4° 14' 15"
Sunlit
Object was in full shadow at epoch
Visualization orbit readout
Latitude
Unknown
Longitude
Unknown
Altitude
Unknown
Speed
Unknown
Apparent Right ascension
Unknown
Apparent Declination
Unknown
Sunlit
N/A
Visualization observer readout
Local Sidereal Time
01:34:06
Azimuth
Unknown
Elevation
Unknown
Doppler factor
Unknown
Orbital elements
Apogee altitude
1,617.218 km
Perigee altitude
1,489.011 km
Semi-major axis
7,931.251 km
Eccentricity
0.00808
Inclination
102.2948°
RAAN
83.916°
Arg. of periapsis
145.7824°
True anomaly
29.77533°
Mean anomaly
29.3178°
Eccentric anomaly
29.54616°
Mean motion
3.07277 °/min
Orbital period
117.16 mins
BSTAR
0.0001861
Loading maneuver chart data...
Computing Atmospheric mass density...
Loading historical data...
Loading historical data...
Loading historical data...
Loading historical data...
Loading historical data...
Loading historical data...
Loading historical data...

Documentation

Showing up to 5 results
|